Weather History for EGPD - December, 2012

Change the Weather History Date:

Tuesday, December 25, 2012

  Actual Average Record
Temperature  
Mean Temperature 38 °F -  
Max Temperature 44 °F 42 °F 57 °F (2011)
Min Temperature 32 °F 31 °F 17 °F (2010)
Degree Days  
Heating Degree Days 27    
Moisture  
Dew Point 34 °F    
Average Humidity 90    
Maximum Humidity 100    
Minimum Humidity 65    
Precipitation  
Precipitation 0.01 in 0.11 in - ()
Sea Level Pressure  
Sea Level Pressure 29.11 in    
Wind  
Wind Speed 4 mph ()    
Max Wind Speed 16 mph    
Max Gust Speed -    
Visibility 7.0 miles    
Events Rain    
Averages and records for this station are not official NWS values.
T = Trace of Precipitation, MM = Missing Value Source: Averaged Metar Reports

Daily Weather History Graph

Daily Weather History Graph

Search for Another Location

Airport or City:

Trip Planner

Search our weather history database for the weather conditions in past years. The results will help you decide how hot, cold, wet, or windy it might be!

Date:

Astronomy

Dec. 25, 2012 Rise Set
Actual Time 8:48 AM GMT 3:29 PM GMT
Civil Twilight 7:58 AM GMT 4:19 PM GMT
Nautical Twilight 7:07 AM GMT 5:10 PM GMT
Astronomical Twilight 6:20 AM GMT 5:58 PM GMT
Moon 1:38 PM GMT (12/25) 5:55 AM GMT (12/25)
Length of Visible Light 8h 20m
Length of Day
6h 40m
Waxing Gibbous, 92% of the Moon is Illuminated
Dec 25
Waxing Gibbous
Dec 28
Full
Jan 5
Last Quarter
Jan 11
New
Jan 18
First Quarter

Hourly Weather History & Observations

Time (GMT) Temp. Windchill Dew Point Humidity Pressure Visibility Wind Dir Wind Speed Gust Speed Precip Events Conditions
12:20 AM 39.2 °F 34.2 °F 37.4 °F 93% 29.12 in - WSW 6.9 mph - N/A   Clear
12:50 AM 39.2 °F 37.0 °F 37.4 °F 93% 29.12 in - Variable 3.5 mph - N/A   Clear
1:20 AM 35.6 °F - 35.6 °F 100% 29.12 in 6.2 mi Variable 2.3 mph - N/A   Unknown
1:50 AM 37.4 °F - 35.6 °F 93% 29.09 in 6.2 mi Calm Calm - N/A   Unknown
2:20 AM 37.4 °F - 35.6 °F 93% 29.09 in - Variable 2.3 mph - N/A   Clear
2:50 AM 36 °F - 35 °F 97% 29.11 in 25 mi WSW 3.5 mph - -  
2:50 AM 35.6 °F - 33.8 °F 93% 29.09 in 6.2 mi Variable 2.3 mph - N/A   Unknown
3:20 AM 33.8 °F - 32.0 °F 93% 29.09 in 6.2 mi Calm Calm - N/A   Unknown
3:50 AM 33.8 °F - 32.0 °F 93% 29.09 in 6.2 mi Calm Calm - N/A   Unknown
4:20 AM 32.0 °F - 32.0 °F 100% 29.09 in - Variable 2.3 mph - N/A   Clear
4:50 AM 33.8 °F 29.6 °F 33.8 °F 100% 29.09 in 6.2 mi SSE 4.6 mph - N/A   Unknown
5:20 AM 33.8 °F - 32.0 °F 93% 29.06 in - SSE 2.3 mph - N/A   Clear
5:50 AM 34 °F - 33 °F 97% 29.10 in 28 mi SSE 2.3 mph - -  
5:50 AM 32.0 °F 27.5 °F 32.0 °F 100% 29.06 in - SSE 4.6 mph - N/A   Clear
6:20 AM 32.0 °F 27.5 °F 32.0 °F 100% 29.09 in - South 4.6 mph - N/A   Clear
6:50 AM 33.8 °F 27.7 °F 33.8 °F 100% 29.09 in - South 6.9 mph - N/A   Clear
7:20 AM 33.8 °F 30.8 °F 33.8 °F 100% 29.09 in - SE 3.5 mph - N/A   Clear
7:50 AM 35.6 °F 32.8 °F 33.8 °F 93% 29.09 in - ESE 3.5 mph - N/A   Clear
8:20 AM 33.8 °F - 33.8 °F 100% 29.09 in - Calm Calm - N/A   Clear
8:50 AM 33 °F - 33 °F 99% 29.10 in 10 mi ESE 3.5 mph - -   Scattered Clouds
8:50 AM 33.8 °F 29.6 °F 32.0 °F 93% 29.09 in - SSE 4.6 mph - N/A   Clear
9:20 AM 33.8 °F 28.6 °F 32.0 °F 93% 29.09 in - South 5.8 mph - N/A   Clear
9:50 AM 33.8 °F - 32.0 °F 93% 29.09 in 6.2 mi SSE 2.3 mph - N/A   Unknown
10:20 AM 33.8 °F 30.8 °F 33.8 °F 100% 29.09 in - Variable 3.5 mph - N/A   Clear
10:50 AM 33.8 °F - 33.8 °F 100% 29.09 in 6.2 mi Calm Calm - N/A   Unknown
11:20 AM 37.4 °F 33.8 °F 37.4 °F 100% 29.09 in - SSE 4.6 mph - N/A   Clear
11:50 AM 40 °F - 37 °F 83% 29.11 in 19 mi SSE 3.5 mph - -   Mostly Cloudy
11:50 AM 41.0 °F 37.1 °F 37.4 °F 87% 29.09 in - ESE 5.8 mph - N/A   Clear
12:20 PM 41.0 °F 35.8 °F 37.4 °F 87% 29.09 in - SE 8.1 mph - N/A   Clear
12:50 PM 41.0 °F 36.4 °F 37.4 °F 87% 29.09 in 6.2 mi SSE 6.9 mph - N/A   Unknown
1:20 PM 42.8 °F - 37.4 °F 81% 29.09 in - SSE 2.3 mph - N/A   Clear
1:50 PM 41.0 °F 39.0 °F 37.4 °F 87% 29.09 in 6.2 mi SSE 3.5 mph - N/A   Unknown
2:20 PM 42.8 °F 41.1 °F 37.4 °F 81% 29.09 in - ESE 3.5 mph - N/A   Clear
2:50 PM 40 °F - 36 °F 78% 29.10 in 28 mi SSW 2.3 mph - -   Scattered Clouds
2:50 PM 37.4 °F 34.9 °F 35.6 °F 93% 29.09 in 6.2 mi Variable 3.5 mph - N/A   Unknown
3:20 PM 37.4 °F 33.8 °F 35.6 °F 93% 29.09 in - SSW 4.6 mph - N/A   Clear
3:50 PM 35.6 °F 31.7 °F 33.8 °F 93% 29.09 in 6.2 mi SW 4.6 mph - N/A   Unknown
4:20 PM 35.6 °F 30.7 °F 33.8 °F 93% 29.12 in - WSW 5.8 mph - N/A   Clear
4:50 PM 37.4 °F - 33.8 °F 87% 29.12 in 6.2 mi WSW 2.3 mph - N/A   Unknown
5:20 PM 35.6 °F 30.7 °F 33.8 °F 93% 29.12 in - WSW 5.8 mph - N/A   Clear
5:50 PM 40 °F - 35 °F 74% 29.14 in 28 mi West 6.9 mph - -   Scattered Clouds
5:50 PM 37.4 °F 32.8 °F 33.8 °F 87% 29.12 in - WSW 5.8 mph - N/A   Clear
6:20 PM 37.4 °F 32.1 °F 33.8 °F 87% 29.12 in - West 6.9 mph - N/A   Clear
6:50 PM 37.4 °F 32.8 °F 33.8 °F 87% 29.12 in - WSW 5.8 mph - N/A   Clear
7:20 PM 37.4 °F 33.8 °F 33.8 °F 87% 29.15 in - WSW 4.6 mph - N/A   Clear
7:50 PM 37.4 °F 32.8 °F 32.0 °F 81% 29.15 in - West 5.8 mph - N/A   Clear
8:20 PM 37.4 °F 32.1 °F 32.0 °F 81% 29.15 in - West 6.9 mph - N/A   Clear
8:50 PM 40 °F - 32 °F 65% 29.18 in 25 mi West 6.9 mph - -   Partly Cloudy
8:50 PM 35.6 °F 30.7 °F 32.0 °F 87% 29.15 in 6.2 mi West 5.8 mph - N/A   Unknown
9:20 PM 37.4 °F 32.8 °F 33.8 °F 87% 29.15 in 6.2 mi WSW 5.8 mph - N/A Rain Light Rain Showers
9:50 PM 39.2 °F 33.6 °F 33.8 °F 81% 29.15 in 6.2 mi WSW 8.1 mph - N/A   Mostly Cloudy
10:20 PM 39.2 °F 33.6 °F 33.8 °F 81% 29.15 in 6.2 mi WSW 8.1 mph - N/A   Partly Cloudy
10:50 PM 41.0 °F 36.4 °F 33.8 °F 76% 29.18 in 6.2 mi West 6.9 mph - N/A   Partly Cloudy
11:20 PM 41.0 °F 33.9 °F 35.6 °F 81% 29.18 in 6.2 mi West 12.7 mph - N/A   Mostly Cloudy
11:50 PM 42 °F - 36 °F 72% 29.21 in 28 mi WNW 16.1 mph - - Rain Rain
11:50 PM 41.0 °F 33.5 °F 37.4 °F 87% 29.21 in 6.2 mi WNW 13.8 mph - N/A   Mostly Cloudy